Lake Meredith Weather Center

Moon Phase Calendar



Lake Meredith Water Level
Online Cameras

 


      

Current Conditions in Fritch
6/12/2021 7:03:03 PM

91°F
Feels Like 90
Clear
Humidity
33%
Pressure
29.77"
Wind
17.2 mph (SE)
Dew Point
58°F
UV Index
1/10 (Low)
Visibility
6 mi

Hourly Forecast

Date & Time Sat, Jun 12
7:00 PM
Sat, Jun 12
8:00 PM
Sat, Jun 12
9:00 PM
Sat, Jun 12
10:00 PM
Sat, Jun 12
11:00 PM
Sun, Jun 13
12:00 AM
Sun, Jun 13
1:00 AM
Sun, Jun 13
2:00 AM
Sun, Jun 13
3:00 AM
Sun, Jun 13
4:00 AM
Sun, Jun 13
5:00 AM
Sun, Jun 13
6:00 AM
Sun, Jun 13
7:00 AM
Sun, Jun 13
8:00 AM
Sun, Jun 13
9:00 AM
Sun, Jun 13
10:00 AM
Sun, Jun 13
11:00 AM
Sun, Jun 13
12:00 PM
Sun, Jun 13
1:00 PM
Sun, Jun 13
2:00 PM
Sun, Jun 13
3:00 PM
Sun, Jun 13
4:00 PM
Sun, Jun 13
5:00 PM
Sun, Jun 13
6:00 PM
Sun, Jun 13
7:00 PM
Sun, Jun 13
8:00 PM
Sun, Jun 13
9:00 PM
Sun, Jun 13
10:00 PM
Sun, Jun 13
11:00 PM
Mon, Jun 14
12:00 AM
Mon, Jun 14
1:00 AM
Mon, Jun 14
2:00 AM
Mon, Jun 14
3:00 AM
Mon, Jun 14
4:00 AM
Mon, Jun 14
5:00 AM
Mon, Jun 14
6:00 AM
Mon, Jun 14
7:00 AM
Mon, Jun 14
8:00 AM
Mon, Jun 14
9:00 AM
Mon, Jun 14
10:00 AM
Mon, Jun 14
11:00 AM
Mon, Jun 14
12:00 PM
Mon, Jun 14
1:00 PM
Mon, Jun 14
2:00 PM
Mon, Jun 14
3:00 PM
Mon, Jun 14
4:00 PM
Mon, Jun 14
5:00 PM
Mon, Jun 14
6:00 PM
Condition
Clear

Clear

Clouds

Rain

Rain

Rain

Rain

Clouds

Clouds

Clouds

Clouds

Clouds

Clouds

Clouds

Clouds

Clouds

Clouds

Clouds

Clouds

Clear

Clear

Clear

Clear

Clear

Clear

Clear

Clear

Clear

Clear

Clouds

Clouds

Clouds

Clear

Clear

Clear

Clear

Clear

Clear

Clear

Clear

Clear

Clear

Clear

Clear

Clear

Clear

Clear

Clear
Temperature 91°F91°F90°F79°F76°F69°F71°F73°F74°F74°F72°F72°F72°F75°F77°F80°F84°F87°F89°F92°F93°F94°F94°F93°F92°F89°F85°F83°F81°F80°F79°F78°F77°F75°F74°F73°F73°F76°F79°F83°F86°F89°F92°F93°F95°F95°F95°F95°F
Feels Like 90°F90°F90°F79°F76°F69°F71°F73°F74°F74°F72°F72°F73°F75°F77°F82°F85°F88°F89°F92°F93°F94°F93°F93°F92°F89°F86°F84°F83°F82°F79°F79°F77°F76°F75°F74°F74°F76°F79°F85°F88°F90°F92°F94°F95°F96°F96°F95°F
Cloudiness 4%3%22%42%61%80%83%100%100%100%96%94%94%76%51%35%27%21%18%0%0%0%0%0%0%0%0%5%6%17%21%12%7%6%6%5%4%4%2%1%1%1%1%0%0%0%0%0%
Visibility 6 mi6 mi6 mi6 mi6 mi6 mi6 mi6 mi6 mi6 mi6 mi6 mi6 mi6 mi6 mi6 mi6 mi6 mi6 mi6 mi6 mi6 mi6 mi6 mi6 mi6 mi6 mi6 mi6 mi6 mi6 mi6 mi6 mi6 mi6 mi6 mi6 mi6 mi6 mi6 mi6 mi6 mi6 mi6 mi6 mi6 mi6 mi6 mi
Precipitation 0%5%40%89%100%100%100%49%31%22%24%21%21%0%0%0%0%0%0%0%0%0%0%0%0%0%0%0%0%0%0%6%0%0%0%0%0%8%8%4%4%2%2%0%0%0%0%0%
Humidity 33%34%37%57%60%83%73%69%67%68%69%71%70%64%60%55%50%44%39%36%33%32%31%32%35%40%48%56%59%59%61%64%72%78%81%83%84%75%65%56%48%43%38%35%34%33%32%32%
Dew Point 58°F59°F60°F62°F61°F62°F61°F61°F61°F61°F61°F61°F61°F61°F62°F62°F63°F62°F61°F60°F59°F59°F59°F59°F60°F61°F62°F64°F65°F64°F63°F64°F66°F67°F67°F67°F67°F66°F66°F65°F64°F63°F62°F62°F61°F61°F60°F60°F
Pressure 29.77"29.77"29.77"29.91"29.97"30.09"30"29.97"29.94"29.94"29.97"30"30"30.03"30.03"30"30"29.97"29.97"29.94"29.91"29.91"29.88"29.88"29.85"29.88"29.91"29.91"29.94"29.97"29.97"29.97"29.97"30"30"30"30.03"30.03"30.03"30.03"30"30"29.97"29.94"29.94"29.91"29.91"29.91"
Wind Speed 17.2 mph19.2 mph19.1 mph27.5 mph7.8 mph25 mph15.4 mph7.6 mph4.6 mph3.4 mph5.2 mph1.7 mph2.3 mph1.7 mph3.7 mph6.4 mph11.1 mph14 mph14.2 mph12.4 mph11.4 mph11.6 mph12.9 mph14.4 mph15.6 mph14.7 mph11.6 mph15.4 mph14.4 mph14.4 mph12.8 mph13.6 mph12.5 mph8.6 mph5.9 mph6.9 mph6.9 mph9 mph10.3 mph10.9 mph11.5 mph10.7 mph10.5 mph11.2 mph11.6 mph12.2 mph12.9 mph13.4 mph
Wind
Direction
136°
SE
131°
SE
147°
SSE
238°
WSW
266°
W
353°
N
29°
NNE
135°
SE
197°
SSW
293°
WNW
355°
N
11°
N
80°
E
91°
E
106°
ESE
127°
SE
141°
SE
144°
SE
150°
SSE
151°
SSE
152°
SSE
150°
SSE
149°
SSE
141°
SE
136°
SE
131°
SE
116°
ESE
119°
ESE
123°
ESE
136°
SE
155°
SSE
155°
SSE
160°
SSE
165°
SSE
147°
SSE
139°
SE
142°
SE
156°
SSE
164°
SSE
169°
S
172°
S
169°
S
166°
SSE
160°
SSE
154°
SSE
150°
SSE
147°
SSE
146°
SE

Daily Forecast

Date High Low Precip. Humidity
Today
Jun 12

Rain
94 °F
70 °F
100%
48%
Sunday
Jun 13

Rain
94 °F
69 °F
100%
39%
Monday
Jun 14

Clear
95 °F
73 °F
6%
38%
Tuesday
Jun 15

Rain
95 °F
72 °F
33%
29%
Wednesday
Jun 16

Clear
98 °F
73 °F
0%
26%
Thursday
Jun 17

Clear
101 °F
75 °F
0%
19%
Friday
Jun 18

Rain
92 °F
75 °F
92%
37%
Saturday
Jun 19

Rain
84 °F
64 °F
100%
58%
Sunday
Jun 20

Rain
103 °F
74 °F
31%
25%
Monday
Jun 21

Rain
88 °F
77 °F
28%
39%
Tuesday
Jun 22

Rain
86 °F
70 °F
98%
55%
Wednesday
Jun 23

Rain
99 °F
69 °F
92%
29%
Thursday
Jun 24

Clear
102 °F
74 °F
0%
21%
Friday
Jun 25

Clear
102 °F
75 °F
0%
16%
Saturday
Jun 26

Clear
104 °F
76 °F
0%
8%
Sunday
Jun 27

Clear
95 °F
80 °F
0%
26%

Temperature 8-14 Day Outlook



Precipitation 8-14 Day Outlook




Quick Links
Lake Meredith News
Lake Meredith Photos
Lake Meredith Videos




About Us
Contact Us
Site Map
Search Site
Advertise With Us
   
Meredith.USLakes.info
THE LAKE MEREDITH WEBSITE

Copyright 2021, Lakes Online
Privacy    |    Legal